Location: Toronto
(43.6672°N, 79.4170°W)
Time: 09:40:41
(UTC-04:00)

ISS - Visible Passes

Search period start: 28 September 2016 00:00
Search period end: 08 October 2016 00:00
Orbit: 400 x 410 km, 51.6° (Epoch: 28 September)

Date Brightness Start Highest point End Pass type
(mag) Time Alt. Az. Time Alt. Az. Time Alt. Az.
28 Sep -2.3 20:41:56 10° SW 20:44:06 33° S 20:44:06 33° S visible
29 Sep -2.0 19:50:25 10° SSW 19:53:06 24° SE 19:54:43 16° E visible
29 Sep -0.8 21:26:14 10° WSW 21:27:26 20° W 21:27:26 20° W visible
30 Sep -3.4 20:34:02 10° WSW 20:37:18 82° NNW 20:37:51 58° NE visible
01 Oct -3.2 19:42:02 10° SW 19:45:13 55° SE 19:48:07 12° ENE visible
01 Oct -1.0 21:18:56 10° W 21:20:48 24° NW 21:20:48 24° NW visible
02 Oct -2.3 20:26:30 10° W 20:29:37 42° NNW 20:30:56 27° NNE visible
03 Oct -3.0 19:34:12 10° WSW 19:37:26 67° NNW 19:40:41 10° NE visible
03 Oct -0.9 21:11:43 10° WNW 21:13:38 21° NNW 21:13:38 21° NNW visible
04 Oct -1.6 20:19:10 10° WNW 20:22:01 27° NNW 20:23:35 19° NNE visible
05 Oct -2.0 19:26:41 10° W 19:29:43 36° NNW 19:32:47 10° NE visible
05 Oct -0.8 21:04:22 10° NW 21:06:07 18° NNW 21:06:07 18° NNW visible
06 Oct -1.3 20:11:52 10° WNW 20:14:27 21° N 20:15:58 16° NNE visible
07 Oct -1.5 19:19:18 10° WNW 19:22:04 25° NNW 19:24:50 10° NE visible
07 Oct -0.9 20:56:45 10° NW 20:58:25 18° NNW 20:58:25 18° NNW visible
